User: anonymous   Login
Location: Oshawa
(43.9000°N, 78.8670°W)
Time: 12:53:44
(UTC-04:00)
Language:

ITAMSAT 1 - Orbit

View from above orbital plane
View from above orbital plane
View from above satellite
View from above satellite

Ground track
Ground track

The orbit data is extracted from the following two-line orbital elements,

1 22826U 93061D   16145.13453328  .00000030  00000-0  28925-4 0  9998
2 22826  98.7517 101.3617 0009474  26.2155 333.9505 14.30279921181964
Epoch (UTC): 24 May 2016 03:13:43
Eccentricity: 0.0009474
inclination: 98.7517°
perigee height: 784 km
apogee height: 797 km
right ascension of ascending node: 101.3617°
argument of perigee: 26.2155°
revolutions per day: 14.30279921
mean anomaly at epoch: 333.9505°
orbit number at epoch: 18196

The dashed part of the orbit path shows where the satellite is in the earth's shadow,  

DLR